"startDT [UTC]","vpos","CH4 [ppm]","stdev(CH4) [ppm]","CO2 [ppm]","stdev(CO2) [ppm]","H2O [ppm]","stdev(H2O)","p_LGR [torr]","T_LGR [C]","mt1_LGR [us]","mt2_LGR [us]","T_ECpre [C]","T_EC1 [C]","T_EC2 [C]","p_inlet [hPa]","p_in [hPa]","p_out [hPa]","T_inlet [C]","RH_inlet [%]","dwpt_inlet [C]","T_vent [C]","RH_vent [%]","dwpt_vent [C]","flow_vent [l min-1]","flow_inlet [l min-1]","dwpt_sample [C]","T_room [C]"
2012-01-21 00:00:00,0.0,1.9238,0.0008,404.35,0.18,14.6,23.7,138.11,28.00,24.60,36.32,0.04,-272.72,-272.73,-49,550,-950,22.3,1.8,-30.6,22.1,1.9,-30.2,5.73,2.38,-28.8,26.0
2012-01-21 00:01:00,0.0,1.9232,0.0008,404.46,0.23,8.9,20.1,138.12,28.00,24.60,36.31,0.04,-272.73,-272.74,-50,551,-951,22.2,1.8,-30.7,22.1,1.8,-30.3,5.73,2.36,-28.9,25.8
2012-01-21 00:02:00,0.0,1.9233,0.0010,404.44,0.24,2.4,9.2,138.13,28.00,24.60,36.31,0.04,-272.73,-272.74,-50,551,-950,22.2,1.8,-30.7,22.1,1.8,-30.3,5.73,2.44,-29.1,25.6
2012-01-21 00:03:00,0.0,1.9223,0.0011,404.45,0.21,3.5,12.6,138.13,27.99,24.60,36.31,0.04,-272.73,-272.73,-50,550,-950,22.2,1.8,-30.7,22.1,1.9,-30.2,5.73,2.56,-29.1,25.3
2012-01-21 00:04:00,0.0,1.9214,0.0010,404.40,0.25,2.2,9.3,138.14,27.98,24.60,36.31,0.04,-272.73,-272.73,-49,551,-950,22.1,1.8,-30.6,22.0,1.9,-30.2,5.73,2.56,-29.3,25.2
2012-01-21 00:05:00,0.0,1.9203,0.0011,404.31,0.22,1.3,9.0,138.14,27.96,24.60,36.31,0.04,-272.73,-272.73,-50,551,-950,22.1,1.8,-30.6,22.0,1.9,-30.3,5.73,2.42,-29.4,25.1
2012-01-21 00:06:00,0.0,1.9203,0.0012,404.32,0.22,0.7,5.5,138.15,27.94,24.60,36.31,0.04,-272.74,-272.74,-50,551,-950,22.0,1.8,-30.6,21.9,1.9,-30.2,5.73,2.31,-29.5,24.9
2012-01-21 00:07:00,0.0,1.9199,0.0009,404.39,0.22,0.0,6.3,138.15,27.91,24.60,36.30,0.04,-272.73,-272.73,-50,550,-950,22.0,1.8,-30.5,21.9,1.9,-30.3,5.73,2.42,-29.6,24.8
2012-01-21 00:08:00,0.0,1.9194,0.0011,404.24,0.22,-0.2,4.7,138.16,27.89,24.60,36.30,0.04,-272.73,-272.74,-49,551,-950,22.0,1.8,-30.5,21.8,1.9,-30.3,5.73,2.60,-29.7,24.8
2012-01-21 00:09:00,0.0,1.9186,0.0008,404.11,0.21,-1.0,0.2,138.16,27.86,24.60,36.30,0.04,-272.73,-272.74,-50,550,-950,21.9,1.8,-30.5,21.8,1.9,-30.3,5.73,2.52,-29.8,24.7
2012-01-21 00:10:00,0.0,1.9185,0.0009,404.07,0.23,-1.0,0.0,138.16,27.83,24.60,36.30,0.04,-272.73,-272.74,-50,550,-950,21.9,1.8,-30.6,21.7,1.9,-30.2,5.73,2.40,-29.9,25.0
2012-01-21 00:11:00,0.0,1.9177,0.0009,404.04,0.21,-0.8,1.3,138.16,27.80,24.60,36.29,0.04,-272.74,-272.74,-50,550,-950,21.9,1.8,-30.4,21.7,1.9,-30.2,5.73,2.47,-29.8,25.5
2012-01-21 00:12:00,0.0,1.9176,0.0011,403.89,0.18,-0.3,4.3,138.15,27.79,24.60,36.30,0.04,-272.73,-272.74,-50,550,-950,21.9,1.9,-30.4,21.8,1.9,-30.1,5.73,2.44,-29.7,25.8
2012-01-21 00:13:00,0.0,1.9183,0.0011,404.05,0.25,-1.0,0.0,138.14,27.79,24.60,36.31,0.04,-272.73,-272.74,-49,550,-950,21.9,1.9,-30.4,21.8,1.9,-30.1,5.73,2.35,-29.6,26.0
2012-01-21 00:14:00,0.0,1.9183,0.0010,403.91,0.25,-1.0,0.0,138.14,27.79,24.60,36.31,0.04,-272.74,-272.74,-50,549,-949,22.0,1.8,-30.4,21.9,1.9,-30.1,5.73,2.44,-29.5,26.2
2012-01-21 00:15:00,0.0,1.9184,0.0009,403.82,0.21,-0.8,1.3,138.13,27.80,24.60,36.31,0.04,-272.73,-272.73,-50,550,-950,22.0,1.9,-30.3,21.9,1.9,-30.1,5.73,2.56,-29.4,26.3
2012-01-21 00:16:00,0.0,1.9194,0.0013,403.99,0.23,-0.5,2.8,138.13,27.81,24.60,36.31,0.04,-272.74,-272.74,-50,550,-950,22.0,1.9,-30.3,21.9,1.9,-29.9,5.73,2.43,-29.3,26.4
2012-01-21 00:17:00,0.0,1.9200,0.0009,404.02,0.20,-0.2,6.4,138.12,27.83,24.59,36.30,0.04,-272.74,-272.74,-49,550,-949,22.0,1.8,-30.3,22.0,1.9,-29.9,5.73,2.36,-29.3,26.5
2012-01-21 00:18:00,0.0,1.9213,0.0010,404.19,0.25,0.5,4.8,138.12,27.85,24.60,36.31,0.04,-272.73,-272.74,-49,550,-950,22.1,1.9,-30.3,22.0,1.9,-29.9,5.73,2.44,-29.2,26.6
2012-01-21 00:19:00,0.0,1.9217,0.0011,404.23,0.21,4.1,13.2,138.11,27.87,24.60,36.31,0.04,-272.73,-272.74,-49,550,-949,22.1,1.8,-30.3,22.0,1.9,-30.0,5.73,2.52,-29.1,26.7
2012-01-21 00:20:00,0.0,1.9220,0.0008,404.23,0.19,5.2,13.6,138.11,27.89,24.60,36.31,0.04,-272.73,-272.73,-49,550,-950,22.2,1.8,-30.4,22.1,1.9,-30.0,5.73,2.52,-29.0,26.8
2012-01-21 00:21:00,0.0,1.9222,0.0009,404.19,0.19,9.5,26.3,138.11,27.92,24.60,36.31,0.04,-272.73,-272.73,-50,550,-950,22.2,1.8,-30.4,22.1,1.9,-29.9,5.73,2.44,-28.9,26.9
2012-01-21 00:22:00,0.0,1.9224,0.0011,404.14,0.23,11.8,22.7,138.11,27.94,24.60,36.32,0.04,-272.73,-272.74,-50,550,-950,22.2,1.8,-30.3,22.1,1.9,-29.9,5.73,2.38,-28.8,27.0
2012-01-21 00:23:00,0.0,1.9226,0.0010,404.15,0.24,19.6,23.4,138.10,27.96,24.60,36.32,0.04,-272.74,-272.73,-50,550,-949,22.3,1.8,-30.3,22.2,1.9,-29.9,5.73,2.39,-28.8,27.1
2012-01-21 00:24:00,0.0,1.9229,0.0009,404.27,0.25,18.4,24.6,138.10,27.99,24.60,36.31,0.04,-272.73,-272.74,-49,551,-950,22.3,1.8,-30.3,22.2,1.9,-29.9,5.73,2.47,-28.7,27.2
2012-01-21 00:25:00,0.0,1.9230,0.0008,404.17,0.26,23.1,25.3,138.10,28.02,24.60,36.32,0.04,-272.73,-272.74,-50,550,-949,22.3,1.8,-30.3,22.3,1.9,-29.9,5.73,2.47,-28.7,26.9
2012-01-21 00:26:00,0.0,1.9225,0.0010,404.02,0.22,19.5,23.6,138.11,28.03,24.60,36.33,0.04,-272.73,-272.73,-49,551,-950,22.4,1.8,-30.3,22.3,1.9,-29.8,5.73,2.40,-28.7,26.4
2012-01-21 00:27:00,0.0,1.9225,0.0008,404.12,0.22,14.6,23.6,138.11,28.05,24.60,36.32,0.04,-272.73,-272.73,-49,551,-950,22.4,1.8,-30.3,22.3,1.9,-29.9,5.73,2.46,-28.8,26.1
2012-01-21 00:28:00,0.0,1.9225,0.0010,404.17,0.19,11.1,22.5,138.12,28.05,24.60,36.31,0.04,-272.74,-272.74,-49,551,-950,22.3,1.8,-30.3,22.2,1.9,-29.9,5.73,2.58,-28.9,25.9
2012-01-21 00:29:00,0.0,1.9220,0.0007,404.29,0.24,3.5,12.2,138.13,28.04,24.60,36.32,0.04,-272.73,-272.73,-50,552,-950,22.3,1.9,-30.1,22.2,1.9,-29.9,5.73,2.53,-29.0,25.6
2012-01-21 00:30:00,0.0,1.9216,0.0009,404.31,0.21,0.5,5.5,138.13,28.04,24.60,36.31,0.04,-272.74,-272.73,-50,551,-951,22.3,1.8,-30.2,22.2,1.9,-29.9,5.73,2.38,-29.2,25.5
2012-01-21 00:31:00,0.0,1.9204,0.0011,404.12,0.22,1.5,8.0,138.14,28.02,24.60,36.31,0.04,-272.73,-272.74,-49,551,-950,22.3,1.9,-30.2,22.1,1.9,-29.9,5.73,2.32,-29.3,25.4
2012-01-21 00:32:00,0.0,1.9197,0.0012,404.04,0.20,-0.5,2.4,138.14,28.00,24.60,36.31,0.04,-272.73,-272.73,-50,552,-950,22.2,1.9,-30.1,22.1,1.9,-29.8,5.73,2.46,-29.4,25.2
2012-01-21 00:33:00,0.0,1.9185,0.0011,403.95,0.24,-0.9,0.5,138.15,27.98,24.60,36.31,0.04,-272.73,-272.73,-50,551,-950,22.2,1.9,-29.9,22.0,2.0,-29.6,5.73,2.59,-29.5,25.0
2012-01-21 00:34:00,0.0,1.9184,0.0010,403.89,0.24,-0.3,3.4,138.15,27.96,24.60,36.32,0.04,-272.73,-272.74,-50,551,-951,22.1,1.9,-29.9,22.0,2.0,-29.6,5.73,2.51,-29.6,25.0
2012-01-21 00:35:00,0.0,1.9182,0.0009,404.02,0.17,-0.4,4.1,138.16,27.94,24.60,36.31,0.04,-272.74,-272.73,-49,551,-950,22.1,1.9,-30.0,22.0,2.0,-29.7,5.73,2.33,-29.7,25.0
2012-01-21 00:36:00,0.0,1.9181,0.0010,403.99,0.21,-1.0,0.0,138.16,27.91,24.60,36.30,0.04,-272.73,-272.73,-50,551,-950,22.1,1.9,-30.1,21.9,2.0,-29.8,5.73,2.35,-29.8,24.9
2012-01-21 00:37:00,0.0,1.9177,0.0009,403.92,0.22,-1.0,0.0,138.16,27.88,24.60,36.30,0.04,-272.74,-272.74,-50,551,-950,22.0,1.9,-29.9,21.9,2.0,-29.7,5.73,2.51,-29.8,25.0
2012-01-21 00:38:00,0.0,1.9173,0.0010,403.86,0.22,-1.0,0.0,138.16,27.86,24.60,36.31,0.04,-272.74,-272.74,-50,551,-950,22.0,1.9,-29.9,21.9,2.0,-29.6,5.73,2.45,-29.7,25.5
2012-01-21 00:39:00,0.0,1.9176,0.0009,403.92,0.19,-1.0,0.0,138.15,27.85,24.59,36.30,0.04,-272.73,-272.73,-50,551,-950,22.0,1.9,-29.9,21.9,2.0,-29.6,5.73,2.44,-29.6,25.9
2012-01-21 00:40:00,0.0,1.9179,0.0009,403.95,0.22,-1.0,0.0,138.14,27.84,24.60,36.31,0.04,-272.73,-272.74,-50,550,-950,22.1,1.9,-30.0,21.9,2.0,-29.6,5.73,2.53,-29.6,26.1
2012-01-21 00:41:00,0.0,1.9186,0.0011,404.01,0.24,-0.3,3.7,138.14,27.85,24.59,36.30,0.04,-272.74,-272.73,-50,551,-950,22.1,1.9,-30.0,22.0,2.0,-29.7,5.73,2.50,-29.5,26.3
2012-01-21 00:42:00,0.0,1.9185,0.0011,403.88,0.19,0.5,7.6,138.13,27.85,24.60,36.31,0.04,-272.73,-272.74,-50,550,-949,22.1,1.9,-29.9,22.0,2.0,-29.6,5.73,2.36,-29.4,26.4
2012-01-21 00:43:00,0.0,1.9194,0.0011,403.90,0.20,0.8,7.5,138.12,27.87,24.60,36.32,0.04,-272.74,-272.74,-50,550,-949,22.1,1.9,-30.1,22.1,2.0,-29.7,5.73,2.40,-29.3,26.5
2012-01-21 00:44:00,0.0,1.9201,0.0012,404.00,0.20,0.9,8.7,138.12,27.89,24.60,36.31,0.04,-272.74,-272.74,-50,550,-950,22.2,1.9,-30.1,22.1,2.0,-29.7,5.73,2.51,-29.2,26.7
2012-01-21 00:45:00,0.0,1.9207,0.0011,404.01,0.25,1.9,7.3,138.12,27.91,24.60,36.31,0.04,-272.73,-272.74,-49,550,-950,22.2,1.9,-30.0,22.1,2.0,-29.6,5.73,2.53,-29.1,26.8
2012-01-21 00:46:00,0.0,1.9215,0.0010,404.12,0.21,3.4,10.7,138.11,27.93,24.60,36.31,0.04,-272.73,-272.73,-49,551,-949,22.3,1.9,-30.1,22.2,1.9,-29.7,5.73,2.45,-29.0,26.9
2012-01-21 00:47:00,0.0,1.9217,0.0012,403.99,0.20,9.9,18.4,138.11,27.95,24.60,36.32,0.04,-272.73,-272.74,-49,550,-949,22.3,1.8,-30.3,22.2,1.9,-29.9,5.73,2.38,-28.9,27.0
2012-01-21 00:48:00,0.0,1.9222,0.0008,404.00,0.21,12.7,18.5,138.11,27.98,24.60,36.32,0.04,-272.73,-272.73,-49,551,-949,22.3,1.8,-30.3,22.2,1.9,-29.9,5.73,2.39,-28.9,27.0
2012-01-21 00:49:00,0.0,1.9219,0.0010,404.00,0.23,12.8,17.9,138.10,28.00,24.60,36.32,0.04,-272.74,-272.73,-49,551,-949,22.4,1.8,-30.3,22.3,1.9,-29.8,5.73,2.48,-28.8,27.1
2012-01-21 00:50:00,0.0,1.9225,0.0013,404.15,0.22,15.3,22.6,138.10,28.03,24.60,36.32,0.04,-272.74,-272.73,-50,551,-949,22.4,1.8,-30.2,22.3,1.9,-29.8,5.73,2.53,-28.7,27.2
2012-01-21 00:51:00,0.0,1.9227,0.0009,404.03,0.21,18.5,25.2,138.10,28.05,24.60,36.32,0.04,-272.74,-272.73,-49,551,-950,22.4,1.8,-30.3,22.3,1.9,-29.9,5.73,2.47,-28.6,26.7
2012-01-21 00:52:00,0.0,1.9224,0.0009,404.08,0.25,23.5,27.3,138.11,28.07,24.60,36.31,0.04,-272.72,-272.74,-49,552,-950,22.5,1.8,-30.2,22.3,1.9,-29.9,5.73,2.39,-28.6,26.3
2012-01-21 00:53:00,0.0,1.9226,0.0010,404.10,0.23,9.0,19.6,138.11,28.08,24.60,36.32,0.04,-272.73,-272.73,-50,552,-950,22.4,1.8,-30.2,22.3,1.9,-29.9,5.73,2.37,-28.8,26.1
2012-01-21 00:54:00,0.0,1.9222,0.0009,404.15,0.27,9.8,18.1,138.12,28.08,24.60,36.32,0.04,-272.74,-272.74,-50,552,-950,22.4,1.8,-30.3,22.3,1.9,-29.8,5.73,2.49,-28.9,25.8
2012-01-21 00:55:00,0.0,1.9222,0.0010,404.24,0.22,5.3,12.3,138.13,28.07,24.60,36.31,0.04,-272.73,-272.74,-49,551,-950,22.4,1.8,-30.3,22.3,1.9,-30.0,5.73,2.57,-29.0,25.7
2012-01-21 00:56:00,0.0,1.9211,0.0012,404.17,0.24,0.6,6.9,138.13,28.06,24.60,36.32,0.04,-272.74,-272.73,-49,552,-950,22.3,1.8,-30.3,22.2,1.9,-29.9,5.73,2.50,-29.2,25.5
2012-01-21 00:57:00,0.0,1.9201,0.0009,404.16,0.22,0.6,6.6,138.14,28.05,24.60,36.31,0.04,-272.74,-272.73,-50,552,-950,22.3,1.9,-30.1,22.2,1.9,-29.8,5.73,2.37,-29.3,25.4
2012-01-21 00:58:00,0.0,1.9195,0.0011,404.11,0.25,1.2,10.0,138.14,28.04,24.60,36.32,0.04,-272.73,-272.74,-50,552,-950,22.3,1.9,-30.1,22.2,1.9,-29.8,5.73,2.33,-29.4,25.3
2012-01-21 00:59:00,0.0,1.9190,0.0009,404.05,0.18,-0.6,2.8,138.15,28.02,24.60,36.31,0.04,-272.73,-272.74,-50,552,-950,22.3,1.9,-30.1,22.1,1.9,-29.8,5.73,2.45,-29.5,25.2
2012-01-21 01:00:00,0.0,1.9187,0.0010,404.11,0.25,-1.0,0.0,138.15,27.99,24.60,36.31,0.04,-272.73,-272.73,-49,552,-950,22.2,1.8,-30.2,22.1,1.9,-29.8,5.73,2.58,-29.6,25.1
2012-01-21 01:01:00,0.0,1.9184,0.0012,403.95,0.24,-0.5,3.2,138.15,27.97,24.60,36.31,0.04,-272.74,-272.74,-50,552,-950,22.2,1.9,-30.2,22.1,1.9,-30.0,5.73,2.53,-29.6,25.0
2012-01-21 01:02:00,0.0,1.9178,0.0012,404.01,0.20,-1.0,0.0,138.16,27.95,24.60,36.30,0.04,-272.73,-272.72,-50,552,-950,22.1,1.8,-30.3,22.0,1.9,-30.0,5.73,2.37,-29.7,24.9
2012-01-21 01:03:00,0.0,1.9180,0.0008,403.93,0.23,-0.8,1.2,138.16,27.92,24.60,36.30,0.04,-272.73,-272.74,-50,551,-950,22.1,1.8,-30.4,22.0,1.9,-30.1,5.73,2.37,-29.7,25.2
2012-01-21 01:04:00,0.0,1.9175,0.0010,403.87,0.21,-1.0,0.0,138.16,27.90,24.60,36.31,0.04,-272.73,-272.74,-50,551,-949,22.1,1.8,-30.5,22.0,1.9,-30.2,5.73,2.48,-29.8,25.7
2012-01-21 01:05:00,0.0,1.9178,0.0011,403.92,0.25,-1.0,0.0,138.15,27.88,24.60,36.30,0.04,-272.73,-272.74,-50,551,-949,22.1,1.8,-30.5,22.0,1.9,-30.2,5.73,2.53,-29.7,26.0
2012-01-21 01:06:00,0.0,1.9179,0.0011,403.99,0.22,-0.3,3.3,138.14,27.88,24.60,36.31,0.04,-272.74,-272.74,-50,551,-950,22.1,1.8,-30.6,22.1,1.9,-30.2,5.73,2.45,-29.6,26.2
2012-01-21 01:07:00,0.0,1.9181,0.0009,403.91,0.23,-0.6,3.2,138.14,27.88,24.60,36.31,0.04,-272.73,-272.74,-50,551,-949,22.2,1.8,-30.5,22.1,1.9,-30.2,5.73,2.35,-29.4,26.4
2012-01-21 01:08:00,0.0,1.9187,0.0012,404.04,0.25,0.2,7.9,138.13,27.89,24.60,36.31,0.04,-272.74,-272.74,-50,551,-950,22.2,1.8,-30.6,22.1,1.9,-30.2,5.73,2.42,-29.4,26.5
2012-01-21 01:09:00,0.0,1.9194,0.0011,404.03,0.25,-0.3,3.3,138.12,27.90,24.59,36.31,0.04,-272.73,-272.74,-50,551,-949,22.2,1.8,-30.7,22.1,1.9,-30.2,5.73,2.52,-29.3,26.6
2012-01-21 01:10:00,0.0,1.9199,0.0011,403.94,0.23,1.4,9.5,138.12,27.92,24.60,36.31,0.04,-272.73,-272.73,-50,551,-949,22.3,1.8,-30.6,22.2,1.8,-30.3,5.73,2.53,-29.2,26.8
2012-01-21 01:11:00,0.0,1.9207,0.0010,403.92,0.19,2.1,9.5,138.11,27.94,24.60,36.31,0.04,-272.73,-272.74,-50,551,-949,22.3,1.8,-30.5,22.2,1.9,-30.2,5.73,2.45,-29.1,26.9
2012-01-21 01:12:00,0.0,1.9212,0.0009,403.94,0.21,5.2,11.4,138.11,27.97,24.60,36.32,0.04,-272.73,-272.74,-50,551,-949,22.3,1.8,-30.4,22.3,1.9,-30.0,5.73,2.38,-29.0,27.0
2012-01-21 01:13:00,0.0,1.9214,0.0009,403.96,0.23,11.4,18.4,138.11,27.99,24.60,36.31,0.04,-272.73,-272.74,-49,551,-949,22.4,1.8,-30.4,22.3,1.9,-30.0,5.73,2.38,-29.0,27.1
2012-01-21 01:14:00,0.0,1.9219,0.0009,403.83,0.19,12.6,16.9,138.10,28.02,24.60,36.32,0.04,-272.74,-272.74,-49,551,-949,22.4,1.8,-30.4,22.3,1.9,-30.0,5.73,2.46,-28.9,27.2
2012-01-21 01:15:00,0.0,1.9218,0.0010,403.90,0.23,16.8,21.5,138.10,28.05,24.60,36.32,0.04,-272.73,-272.73,-49,551,-949,22.4,1.8,-30.5,22.4,1.9,-30.1,5.73,2.53,-28.8,27.3
2012-01-21 01:16:00,0.0,1.9220,0.0008,404.00,0.24,19.0,25.2,138.10,28.07,24.60,36.32,0.04,-272.73,-272.73,-49,552,-949,22.5,1.8,-30.5,22.4,1.9,-30.1,5.73,2.51,-28.8,27.0
2012-01-21 01:17:00,0.0,1.9219,0.0012,403.99,0.22,12.6,21.2,138.10,28.09,24.60,36.32,0.04,-272.72,-272.74,-50,552,-950,22.5,1.8,-30.5,22.4,1.9,-30.1,5.73,2.43,-28.8,26.5
2012-01-21 01:18:00,0.0,1.9219,0.0010,403.92,0.21,14.4,20.9,138.11,28.10,24.60,36.32,0.04,-272.74,-272.74,-50,552,-950,22.5,1.8,-30.5,22.4,1.9,-30.0,5.73,2.35,-28.8,26.2
2012-01-21 01:19:00,0.0,1.9217,0.0010,404.05,0.24,6.9,15.5,138.12,28.11,24.60,36.32,0.04,-272.74,-272.73,-49,552,-950,22.5,1.8,-30.5,22.4,1.9,-29.9,5.73,2.42,-28.9,26.0
2012-01-21 01:20:00,0.0,1.9212,0.0009,404.16,0.20,5.1,12.9,138.12,28.11,24.61,36.32,0.04,-272.74,-272.74,-49,553,-950,22.5,1.8,-30.5,22.4,1.9,-30.0,5.73,2.58,-29.0,25.8
2012-01-21 01:21:00,0.0,1.9214,0.0011,404.22,0.22,2.1,9.1,138.13,28.10,24.60,36.32,0.04,-272.74,-272.74,-50,552,-950,22.4,1.8,-30.5,22.3,1.9,-30.0,5.73,2.54,-29.1,25.6
2012-01-21 01:22:00,0.0,1.9205,0.0010,404.10,0.23,2.3,12.0,138.13,28.09,24.60,36.31,0.04,-272.73,-272.74,-50,553,-950,22.4,1.8,-30.6,22.3,1.8,-30.2,5.73,2.38,-29.2,25.4
2012-01-21 01:23:00,0.0,1.9199,0.0009,403.95,0.24,1.3,9.7,138.14,28.07,24.60,36.32,0.04,-272.73,-272.73,-49,552,-950,22.4,1.7,-30.7,22.3,1.8,-30.3,5.73,2.32,-29.3,25.3
2012-01-21 01:24:00,0.0,1.9185,0.0009,403.78,0.23,-1.0,0.2,138.15,28.06,24.60,36.32,0.04,-272.74,-272.73,-50,552,-950,22.3,1.7,-30.7,22.2,1.8,-30.4,5.73,2.43,-29.5,25.2
2012-01-21 01:25:00,0.0,1.9177,0.0009,403.82,0.24,1.7,10.7,138.15,28.04,24.60,36.32,0.04,-272.74,-272.74,-51,552,-950,22.3,1.8,-30.6,22.2,1.9,-30.2,5.73,2.57,-29.5,25.1
2012-01-21 01:26:00,0.0,1.9177,0.0010,403.77,0.24,-0.7,2.1,138.15,28.02,24.60,36.32,0.04,-272.74,-272.74,-50,552,-950,22.3,1.8,-30.6,22.2,1.8,-30.2,5.73,2.54,-29.6,25.2
2012-01-21 01:27:00,0.0,1.9173,0.0010,403.86,0.26,-1.0,0.0,138.16,27.99,24.60,36.31,0.04,-272.74,-272.73,-49,552,-950,22.3,1.8,-30.5,22.1,1.8,-30.3,5.73,2.38,-29.7,25.1
2012-01-21 01:28:00,0.0,1.9166,0.0010,403.71,0.26,-1.0,0.0,138.16,27.97,24.60,36.31,0.04,-272.73,-272.74,-50,552,-950,22.2,1.8,-30.6,22.1,1.9,-30.3,5.73,2.32,-29.7,25.1
2012-01-21 01:29:00,0.0,1.9163,0.0011,403.59,0.19,-0.6,3.0,138.16,27.94,24.60,36.32,0.04,-272.73,-272.73,-50,551,-949,22.2,1.8,-30.5,22.1,1.9,-30.2,5.73,2.45,-29.8,25.3
2012-01-21 01:30:00,0.0,1.9161,0.0011,403.59,0.23,-0.3,4.0,138.15,27.93,24.60,36.31,0.04,-272.73,-272.73,-50,552,-949,22.2,1.8,-30.4,22.1,1.9,-30.2,5.73,2.46,-29.8,25.8
2012-01-21 01:31:00,0.0,1.9160,0.0009,403.64,0.22,-1.0,0.0,138.15,27.92,24.60,36.31,0.04,-272.74,-272.73,-50,551,-949,22.2,1.8,-30.4,22.1,1.9,-30.1,5.73,2.51,-29.6,26.1
2012-01-21 01:32:00,0.0,1.9163,0.0010,403.65,0.22,-1.0,0.3,138.14,27.92,24.60,36.31,0.04,-272.74,-272.74,-50,551,-950,22.2,1.8,-30.3,22.1,1.9,-30.0,5.73,2.52,-29.5,26.3
2012-01-21 01:33:00,0.0,1.9172,0.0008,403.68,0.24,0.0,4.1,138.13,27.92,24.60,36.31,0.04,-272.74,-272.73,-50,551,-949,22.3,1.8,-30.3,22.2,1.9,-29.9,5.73,2.42,-29.4,26.5
2012-01-21 01:34:00,0.0,1.9176,0.0008,403.60,0.20,-0.9,1.1,138.13,27.93,24.60,36.32,0.04,-272.73,-272.74,-50,551,-949,22.3,1.8,-30.3,22.2,1.9,-29.9,5.73,2.36,-29.3,26.6
2012-01-21 01:35:00,0.0,1.9188,0.0009,403.58,0.22,-0.4,2.9,138.12,27.95,24.60,36.32,0.04,-272.73,-272.74,-50,551,-949,22.3,1.8,-30.2,22.2,1.9,-29.9,5.73,2.41,-29.2,26.8
2012-01-21 01:36:00,0.0,1.9194,0.0009,403.58,0.21,2.0,7.9,138.12,27.97,24.60,36.32,0.04,-272.73,-272.74,-50,551,-949,22.3,1.8,-30.3,22.3,1.9,-29.8,5.73,2.50,-29.1,26.9
2012-01-21 01:37:00,0.0,1.9195,0.0008,403.58,0.21,7.7,17.1,138.11,27.99,24.60,36.32,0.04,-272.73,-272.73,-50,551,-949,22.4,1.8,-30.2,22.3,1.9,-29.8,5.73,2.53,-29.0,27.0
2012-01-21 01:38:00,0.0,1.9200,0.0010,403.50,0.21,4.3,12.7,138.11,28.01,24.60,36.32,0.04,-272.74,-272.74,-49,551,-949,22.4,1.9,-30.1,22.3,1.9,-29.8,5.73,2.46,-28.9,27.1
2012-01-21 01:39:00,0.0,1.9200,0.0008,403.50,0.19,7.6,14.5,138.10,28.04,24.60,36.32,0.04,-272.74,-272.73,-49,551,-949,22.5,1.8,-30.1,22.4,1.9,-29.8,5.73,2.38,-28.9,27.2
2012-01-21 01:40:00,0.0,1.9203,0.0009,403.49,0.25,15.4,21.9,138.10,28.06,24.60,36.33,0.04,-272.73,-272.73,-50,551,-949,22.5,1.8,-30.2,22.4,1.9,-29.8,5.73,2.38,-28.8,27.3
2012-01-21 01:41:00,0.0,1.9205,0.0009,403.61,0.19,18.9,22.7,138.10,28.09,24.60,36.32,0.04,-272.74,-272.73,-50,552,-949,22.5,1.8,-30.1,22.5,1.9,-29.7,5.73,2.46,-28.8,27.4
2012-01-21 01:42:00,0.0,1.9203,0.0009,403.66,0.22,18.9,21.8,138.10,28.11,24.60,36.32,0.04,-272.74,-272.74,-50,552,-949,22.6,1.9,-30.0,22.5,1.9,-29.6,5.73,2.50,-28.7,27.3
2012-01-21 01:43:00,0.0,1.9205,0.0010,403.66,0.27,24.7,19.9,138.10,28.14,24.60,36.32,0.04,-272.74,-272.74,-49,552,-949,22.6,1.8,-30.0,22.5,1.9,-29.5,5.73,2.42,-28.6,26.7
2012-01-21 01:44:00,0.0,1.9204,0.0011,403.57,0.25,10.5,19.8,138.11,28.15,24.60,36.32,0.04,-272.74,-272.74,-50,552,-949,22.6,1.9,-29.8,22.5,2.0,-29.4,5.73,2.38,-28.7,26.5
2012-01-21 01:45:00,0.0,1.9205,0.0011,403.62,0.22,8.9,15.3,138.11,28.16,24.60,36.31,0.04,-272.73,-272.73,-50,552,-950,22.6,1.9,-29.8,22.5,2.0,-29.3,5.73,2.51,-28.8,26.1
2012-01-21 01:46:00,0.0,1.9206,0.0010,403.69,0.22,8.0,17.8,138.12,28.16,24.60,36.32,0.04,-272.74,-272.74,-50,552,-949,22.6,1.9,-29.6,22.5,2.0,-29.3,5.73,2.59,-29.0,25.9
2012-01-21 01:47:00,0.0,1.9197,0.0009,403.68,0.19,5.3,13.7,138.13,28.15,24.60,36.32,0.04,-272.72,-272.74,-49,553,-950,22.6,1.9,-29.7,22.5,2.0,-29.4,5.73,2.44,-29.1,25.8
2012-01-21 01:48:00,0.0,1.9192,0.0010,403.73,0.20,2.6,11.2,138.13,28.14,24.61,36.32,0.04,-272.74,-272.74,-50,553,-950,22.6,1.9,-29.8,22.4,2.0,-29.5,5.73,2.31,-29.2,25.6
2012-01-21 01:49:00,0.0,1.9190,0.0010,403.69,0.21,0.8,7.5,138.14,28.13,24.60,36.32,0.04,-272.74,-272.74,-51,553,-950,22.5,1.9,-29.9,22.4,2.0,-29.5,5.73,2.39,-29.3,25.5
2012-01-21 01:50:00,0.0,1.9184,0.0011,403.69,0.21,0.4,6.2,138.14,28.11,24.60,36.32,0.04,-272.73,-272.73,-50,553,-950,22.5,1.9,-29.9,22.3,2.0,-29.5,5.73,2.55,-29.4,25.3
2012-01-21 01:51:00,0.0,1.9176,0.0012,403.63,0.25,0.0,7.4,138.14,28.09,24.60,36.31,0.04,-272.73,-272.74,-50,553,-950,22.4,1.9,-29.8,22.3,2.0,-29.5,5.73,2.56,-29.5,25.2
2012-01-21 01:52:00,0.0,1.9166,0.0009,403.54,0.20,-1.0,0.0,138.15,28.07,24.60,36.32,0.04,-272.74,-272.74,-50,552,-950,22.4,1.9,-29.8,22.3,2.0,-29.6,5.73,2.42,-29.6,25.2
2012-01-21 01:53:00,0.0,1.9161,0.0010,403.57,0.22,-1.0,0.0,138.15,28.05,24.60,36.31,0.04,-272.74,-272.74,-51,552,-950,22.4,1.9,-29.8,22.2,2.0,-29.6,5.73,2.31,-29.7,25.1
2012-01-21 01:54:00,0.0,1.9160,0.0011,403.50,0.20,-1.0,0.0,138.16,28.02,24.60,36.31,0.04,-272.74,-272.73,-50,552,-950,22.3,1.9,-29.8,22.2,2.0,-29.4,5.73,2.39,-29.7,25.1
2012-01-21 01:55:00,0.0,1.9154,0.0010,403.57,0.21,-0.9,0.5,138.16,28.00,24.60,36.31,0.04,-272.73,-272.73,-50,552,-949,22.3,1.9,-29.8,22.2,2.0,-29.5,5.73,2.54,-29.7,25.1
2012-01-21 01:56:00,0.0,1.9157,0.0009,403.53,0.25,-1.0,0.3,138.15,27.97,24.60,36.31,0.04,-272.73,-272.73,-50,552,-950,22.3,1.9,-29.7,22.2,2.0,-29.5,5.73,2.44,-29.7,25.7
2012-01-21 01:57:00,0.0,1.9163,0.0010,403.54,0.24,-1.0,0.0,138.15,27.96,24.60,36.31,0.04,-272.73,-272.74,-50,552,-949,22.3,1.9,-29.8,22.2,2.0,-29.5,5.73,2.41,-29.6,26.0
2012-01-21 01:58:00,0.0,1.9164,0.0011,403.55,0.23,-1.0,0.0,138.14,27.96,24.60,36.31,0.04,-272.73,-272.74,-50,552,-949,22.3,1.9,-29.8,22.2,2.0,-29.6,5.73,2.48,-29.5,26.3
2012-01-21 01:59:00,0.0,1.9174,0.0011,403.61,0.25,-0.2,2.7,138.13,27.96,24.60,36.31,0.04,-272.72,-272.74,-50,552,-949,22.4,1.9,-29.9,22.3,2.0,-29.6,5.73,2.54,-29.4,26.5
2012-01-21 02:00:00,0.0,1.9181,0.0009,403.65,0.24,-0.4,3.2,138.13,27.97,24.60,36.31,0.04,-272.73,-272.73,-50,552,-949,22.4,1.9,-30.0,22.3,1.9,-29.7,5.73,2.46,-29.3,26.6
2012-01-21 02:01:00,0.0,1.9189,0.0013,403.57,0.20,1.6,8.1,138.12,27.99,24.60,36.32,0.04,-272.74,-272.74,-50,552,-949,22.4,1.9,-30.1,22.3,1.9,-29.8,5.73,2.38,-29.2,26.8
2012-01-21 02:02:00,0.0,1.9197,0.0010,403.59,0.23,2.2,9.9,138.12,28.01,24.60,36.31,0.04,-272.74,-272.74,-50,552,-949,22.4,1.8,-30.2,22.4,1.9,-29.8,5.73,2.38,-29.2,26.9
2012-01-21 02:03:00,0.0,1.9203,0.0010,403.58,0.24,10.0,18.5,138.11,28.03,24.60,36.32,0.04,-272.74,-272.73,-50,552,-949,22.5,1.8,-30.3,22.4,1.9,-30.0,5.73,2.45,-29.0,27.0
2012-01-21 02:04:00,0.0,1.9211,0.0009,403.62,0.25,6.8,16.0,138.11,28.05,24.60,36.32,0.04,-272.74,-272.74,-50,552,-949,22.5,1.8,-30.5,22.4,1.8,-30.1,5.73,2.52,-29.0,27.1
2012-01-21 02:05:00,0.0,1.9212,0.0011,403.70,0.21,13.3,21.9,138.10,28.08,24.60,36.31,0.04,-272.74,-272.73,-50,552,-949,22.6,1.8,-30.6,22.5,1.8,-30.2,5.73,2.51,-28.9,27.2
2012-01-21 02:06:00,0.0,1.9205,0.0008,403.67,0.26,14.5,19.7,138.10,28.10,24.60,36.32,0.04,-272.73,-272.73,-50,552,-949,22.6,1.7,-30.6,22.5,1.8,-30.2,5.73,2.41,-28.8,27.3
2012-01-21 02:07:00,0.0,1.9212,0.0010,403.75,0.21,17.1,24.3,138.10,28.13,24.60,36.32,0.04,-272.74,-272.73,-50,552,-949,22.6,1.7,-30.6,22.6,1.8,-30.2,5.73,2.36,-28.7,27.4
2012-01-21 02:08:00,0.0,1.9223,0.0010,403.92,0.23,34.7,29.0,138.10,28.16,24.60,36.32,0.04,-272.73,-272.74,-50,552,-949,22.7,1.7,-30.7,22.6,1.8,-30.2,5.73,2.41,-28.7,27.3
2012-01-21 02:09:00,0.0,1.9217,0.0010,403.79,0.20,28.1,27.1,138.10,28.18,24.60,36.32,0.04,-272.74,-272.74,-50,553,-949,22.7,1.7,-30.7,22.6,1.8,-30.3,5.73,2.44,-28.7,26.7
2012-01-21 02:10:00,0.0,1.9213,0.0010,403.85,0.19,16.6,22.2,138.10,28.20,24.60,36.32,0.04,-272.73,-272.73,-49,553,-950,22.7,1.7,-30.7,22.6,1.8,-30.3,5.73,2.51,-28.7,26.4
2012-01-21 02:11:00,0.0,1.9215,0.0009,403.76,0.27,11.2,18.5,138.11,28.21,24.60,36.32,0.04,-272.73,-272.73,-49,554,-950,22.7,1.7,-30.7,22.6,1.8,-30.3,5.73,2.58,-28.8,26.2
2012-01-21 02:12:00,0.0,1.9217,0.0009,403.76,0.19,9.5,18.5,138.12,28.21,24.60,36.33,0.04,-272.73,-272.73,-50,553,-950,22.7,1.7,-30.6,22.6,1.8,-30.3,5.73,2.42,-28.9,25.9
2012-01-21 02:13:00,0.0,1.9214,0.0009,403.84,0.21,7.2,13.9,138.12,28.20,24.60,36.32,0.04,-272.72,-272.74,-50,553,-950,22.7,1.7,-30.6,22.6,1.8,-30.3,5.73,2.30,-29.0,25.8
2012-01-21 02:14:00,0.0,1.9205,0.0009,403.90,0.18,4.5,13.3,138.13,28.19,24.60,36.32,0.04,-272.73,-272.73,-49,553,-950,22.6,1.7,-30.6,22.5,1.8,-30.2,5.73,2.44,-29.1,25.6
2012-01-21 02:15:00,0.0,1.9204,0.0010,403.92,0.26,1.5,7.6,138.13,28.18,24.60,36.32,0.04,-272.73,-272.74,-50,554,-950,22.6,1.7,-30.6,22.5,1.8,-30.2,5.73,2.58,-29.2,25.6
2012-01-21 02:16:00,0.0,1.9202,0.0012,403.79,0.22,0.7,5.2,138.14,28.17,24.60,36.32,0.04,-272.73,-272.74,-51,553,-950,22.6,1.7,-30.6,22.5,1.8,-30.2,5.73,2.51,-29.3,25.4
2012-01-21 02:17:00,0.0,1.9191,0.0010,403.61,0.22,-0.7,2.7,138.14,28.15,24.60,36.32,0.04,-272.73,-272.74,-50,553,-950,22.5,1.7,-30.7,22.4,1.8,-30.4,5.73,2.35,-29.4,25.4
2012-01-21 02:18:00,0.0,1.9193,0.0010,403.74,0.22,-0.8,1.1,138.14,28.13,24.60,36.32,0.04,-272.73,-272.74,-50,553,-950,22.5,1.7,-30.7,22.4,1.8,-30.4,5.73,2.33,-29.5,25.4